Change the Weather History Date:

Saturday, September 8, 2012

  Actual Average Record
Temperature  
Mean Temperature 73 °F -  
Max Temperature 77 °F 71 °F 83 °F (1971)
Min Temperature 69 °F 56 °F 33 °F (1996)
Cooling Degree Days 8    
Growing Degree Days 23 (Base 50)    
Moisture  
Dew Point 71 °F    
Average Humidity 93    
Maximum Humidity 100    
Minimum Humidity 82    
Precipitation  
Precipitation 0.00 in - - ()
Sea Level Pressure  
Sea Level Pressure 29.82 in    
Wind  
Wind Speed 12 mph (SSE)    
Max Wind Speed 20 mph    
Max Gust Speed 24 mph    
Visibility 9 miles    
Events      
Averages and records for this station are not official NWS values.
T = Trace of Precipitation, MM = Missing Value Source: NWS Daily Summary

Daily Weather History Graph

Daily Weather History Graph

Search for Another Location

Airport or City:

Trip Planner

Search our weather history database for the weather conditions in past years. The results will help you decide how hot, cold, wet, or windy it might be!

Date:

Astronomy

Sep. 08, 2012 Rise Set
Actual Time 6:14 AM EDT 7:00 PM EDT
Civil Twilight 5:46 AM EDT 7:28 PM EDT
Nautical Twilight 5:12 AM EDT 8:01 PM EDT
Astronomical Twilight 4:38 AM EDT 8:35 PM EDT
Moon 11:38 PM EDT (9/8) 1:57 PM EDT (9/8)
Length of Visible Light 13h 42m
Length of Day
12h 46m
Waning Gibbous, 49% of the Moon is Illuminated
Sep 8
Waning Gibbous
Sep 15
New
Sep 22
First Quarter
Sep 29
Full
Oct 8
Last Quarter

Hourly Weather History & Observations

Time (EDT) Temp. Dew Point Humidity Pressure Visibility Wind Dir Wind Speed Gust Speed Precip Events Conditions
12:46 AM 69.8 °F 69.8 °F 100% 29.92 in 7.0 mi South 9.2 mph - N/A   Mostly Cloudy
12:53 AM 70.0 °F 70.0 °F 100% 29.93 in 7.0 mi South 9.2 mph - N/A   Overcast
1:53 AM 70.0 °F 69.1 °F 97% 29.90 in 10.0 mi South 11.5 mph - N/A   Scattered Clouds
2:53 AM 70.0 °F 69.1 °F 97% 29.94 in 10.0 mi SSW 9.2 mph - N/A   Clear
3:53 AM 69.1 °F 69.1 °F 100% 29.94 in 9.0 mi South 6.9 mph - N/A   Mostly Cloudy
4:53 AM 69.1 °F 69.1 °F 100% 29.94 in 10.0 mi South 8.1 mph - N/A   Mostly Cloudy
5:21 AM 69.8 °F 68.0 °F 94% 29.93 in 10.0 mi SSE 9.2 mph - N/A   Scattered Clouds
5:53 AM 70.0 °F 69.1 °F 97% 29.93 in 10.0 mi SSE 10.4 mph - N/A   Clear
6:53 AM 70.0 °F 69.1 °F 97% 29.92 in 10.0 mi SSE 10.4 mph - N/A   Clear
7:53 AM 71.1 °F 70.0 °F 96% 29.92 in 10.0 mi SSE 10.4 mph - N/A   Clear
8:53 AM 73.0 °F 70.0 °F 90% 29.91 in 10.0 mi SSE 13.8 mph - N/A   Clear
9:53 AM 73.9 °F 70.0 °F 87% 29.90 in 10.0 mi SSE 11.5 mph - N/A   Partly Cloudy
10:53 AM 75.0 °F 70.0 °F 84% 29.88 in 10.0 mi SSE 15.0 mph - N/A   Clear
11:53 AM 75.9 °F 71.1 °F 85% 29.87 in 10.0 mi SSE 13.8 mph - N/A   Clear
12:53 PM 75.9 °F 71.1 °F 85% 29.84 in 10.0 mi SSE 13.8 mph - N/A   Clear
1:53 PM 77.0 °F 72.0 °F 84% 29.83 in 10.0 mi SSE 15.0 mph - N/A   Clear
2:53 PM 77.0 °F 71.1 °F 82% 29.80 in 10.0 mi SSE 18.4 mph 24.2 mph N/A   Scattered Clouds
3:53 PM 75.2 °F 71.6 °F 89% 29.78 in 10.0 mi SSE 16.1 mph - N/A   Scattered Clouds
4:26 PM 75.2 °F 71.6 °F 89% 29.77 in 10.0 mi SSE 17.3 mph - N/A   Mostly Cloudy
4:33 PM 75.2 °F 71.6 °F 89% 29.76 in 10.0 mi SSE 18.4 mph - N/A   Scattered Clouds
4:53 PM 75.0 °F 71.1 °F 87% 29.76 in 10.0 mi SSE 16.1 mph - N/A   Partly Cloudy
5:53 PM 73.0 °F 71.1 °F 93% 29.75 in 9.0 mi SSE 17.3 mph - N/A   Clear
6:53 PM 72.0 °F 71.1 °F 97% 29.73 in 6.0 mi SSE 15.0 mph - N/A   Partly Cloudy
7:32 PM 71.6 °F 71.6 °F 100% 29.74 in 7.0 mi South 17.3 mph - N/A   Mostly Cloudy
7:53 PM 73.0 °F 72.0 °F 96% 29.74 in 6.0 mi South 16.1 mph - N/A   Mostly Cloudy
8:05 PM 73.4 °F 71.6 °F 94% 29.74 in 6.0 mi South 16.1 mph - N/A   Partly Cloudy
8:53 PM 73.0 °F 72.0 °F 96% 29.74 in 7.0 mi South 15.0 mph - N/A   Scattered Clouds
9:03 PM 73.4 °F 71.6 °F 94% 29.74 in 7.0 mi South 15.0 mph - N/A   Mostly Cloudy
9:15 PM 73.4 °F 71.6 °F 94% 29.74 in 7.0 mi South 16.1 mph - N/A   Partly Cloudy
9:53 PM 73.0 °F 72.0 °F 96% 29.73 in 8.0 mi South 19.6 mph - N/A   Clear
10:53 PM 73.0 °F 72.0 °F 96% 29.73 in 7.0 mi South 17.3 mph - N/A   Mostly Cloudy
11:16 PM 73.4 °F 71.6 °F 94% 29.73 in 7.0 mi South 18.4 mph 24.2 mph N/A   Mostly Cloudy
11:53 PM 73.0 °F 72.0 °F 96% 29.73 in 6.0 mi South 17.3 mph - N/A   Overcast